Location: Rimouski
(48.4330°N, 68.5170°W)
Time: 07:50:19
(UTC-04:00)

Daily predictions for brighter satellites

Satellite Brightness Start Highest point End
(mag) Time Altitude Azimuth Time Altitude Azimuth Time Altitude Azimuth
Cosmos 1464 Rocket 4.0 20:45:29 10° N 20:51:39 78° E 20:57:48 10° SSE
SL-24 R/B - RUBIN 2 4.3 20:47:14 10° SSW 20:52:37 60° ESE 20:58:44 10° NE
Cosmos 2369 Rocket 3.6 20:53:36 10° NNW 20:58:29 28° NE 21:03:18 10° ESE
Cosmos 2058 Rocket 3.3 20:56:21 10° NNW 21:00:45 72° W 21:05:05 10° S
PSLV R/B 3.2 20:58:50 10° SSE 21:01:54 74° ENE 21:05:01 10° N
Cosmos 2219 Rocket 3.5 20:56:46 10° SW 21:02:11 46° NW 21:07:37 10° NNE
Lacrosse 5 rocket 1.3 21:01:22 10° SW 21:05:12 58° SE 21:09:16 10° ENE
SL-16 R/B 2.2 21:00:35 10° SSW 21:06:12 70° ESE 21:11:51 10° NNE
deb Chang Zheng 4 3.9 21:03:44 10° NNE 21:08:10 75° WNW 21:12:32 10° SSW
Cosmos 2034 Rocket 4.1 21:02:23 10° N 21:08:49 79° E 21:15:10 10° SSE
Cosmos 1666 2.8 21:05:20 10° N 21:09:15 89° WSW 21:13:09 10° S
ARGOS 3.7 21:07:06 10° SE 21:12:14 46° ENE 21:17:25 10° N
UNK 4.4 21:07:22 10° NNE 21:12:34 51° E 21:17:59 10° S
Abrixas rocket 3.3 21:09:43 10° W 21:12:53 35° SSW 21:15:53 11° SE
Cosmos 1602 Rocket 3.9 21:09:51 10° S 21:14:12 51° E 21:18:33 10° NNE
H-2A R/B 3.4 21:10:22 10° ESE 21:14:20 25° ENE 21:18:24 10° N
Meteor 1-23 Rocket 4.3 21:09:20 10° S 21:14:58 88° WNW 21:20:45 10° N
Okean 2 3.5 21:11:16 10° S 21:15:27 83° W 21:19:40 10° N
Timation 1 Rocket 4.4 21:09:55 10° NNW 21:15:59 89° WSW 21:21:59 10° SSE
Aureole 2 Rocket 2.9 21:12:40 10° S 21:16:29 48° ESE 21:19:59 10° NNE
Cosmos 1812 Rocket 3.7 21:16:22 10° N 21:20:42 59° ENE 21:25:02 10° SSE
Cosmos 494 Rocket 3.9 21:16:26 10° SSW 21:21:32 86° ESE 21:26:42 10° NNE
SPOT 1/Viking Rocket 3.7 21:17:22 10° SSE 21:22:29 66° ENE 21:27:36 10° N
Cosmos 1461 3.0 21:18:58 10° NW 21:23:21 79° SW 21:27:10 12° SSE
USA 245 4.3 21:20:44 10° SSE 21:26:51 73° ENE 21:32:07 10° N
CZ-4 R/B 4.3 21:29:25 10° NNE 21:34:12 45° E 21:39:00 10° S
MetOp-B 4.3 21:29:19 10° S 21:34:40 75° WSW 21:40:03 10° NNW
Cosmos 1603 3.9 21:29:31 10° S 21:34:54 48° ESE 21:40:17 10° NE
Cosmos 1346 Rocket 4.5 21:34:35 13° ESE 21:36:26 18° E 21:39:07 10° NE
H-2A R/B 4.1 21:34:33 10° SSW 21:38:03 25° W 21:41:38 10° NW
Cosmos 1515 4.2 21:38:47 14° SSE 21:41:51 41° E 21:45:31 10° NNE
SPOT 5 3.7 21:39:28 10° S 21:43:41 42° W 21:47:51 10° NNW
Cosmos 2333 Rocket 4.2 21:40:16 10° WSW 21:45:19 32° NW 21:50:24 10° NNE
Cosmos 1626 Rocket 3.8 21:43:46 10° SSW 21:48:12 75° W 21:52:38 10° N
Meteor 2-12 Rocket 4.5 21:46:51 10° N 21:53:00 87° W 21:58:39 12° S
CZ-4B R/B 3.6 21:52:10 10° NNE 21:57:12 83° WNW 22:02:21 10° SSW
SeaSat 1 4.1 21:54:15 10° SSW 21:58:22 26° WSW 22:02:30 10° NW
Lacrosse 5 3.4 21:54:19 10° W 21:59:04 39° NNW 22:03:50 10° NE
Landsat 7 3.9 21:56:50 18° SSE 22:00:25 72° ENE 22:05:12 10° N
ATLAS CENTAUR R/B 3.5 21:56:30 10° WSW 22:01:11 38° NW 22:05:54 10° NNE
Cosmos 1943 3.9 21:57:45 15° SSE 22:01:42 35° ESE 22:06:49 10° NE
Cosmos 1953 Rocket 4.1 22:01:19 20° SSE 22:04:01 42° E 22:08:12 10° NNE
DELTA 2 DEB (DPAF) 4.2 22:02:45 17° SSE 22:06:09 83° WSW 22:10:41 10° NNW
Cosmos 1766 3.8 22:08:45 10° N 22:12:36 45° ENE 22:14:37 24° SE
Cosmos 1943 Rocket 3.1 22:10:17 10° NNW 22:15:29 39° NE 22:19:29 16° ESE
Terra 1.8 22:13:07 22° SSE 22:16:13 73° ENE 22:21:00 10° N
YAOGAN 6 4.2 22:13:01 10° SSW 22:16:17 30° W 22:19:39 10° NNW
Atlas Centaur 2 4.2 22:14:05 10° SSW 22:19:34 19° SSE 22:20:37 19° SSE
CZ-4C R/B 3.9 22:17:57 18° S 22:20:59 58° WSW 22:25:05 10° NNW
COSMOS 2455 2.8 22:16:02 10° SSW 22:21:59 67° ESE 22:27:59 10° NE
USA 81 4.3 22:18:36 10° N 22:23:52 67° W 22:28:05 16° S
ATLAS 3B R/B 3.3 22:18:09 13° S 22:24:33 41° ESE 22:31:28 10° NE
SL-8 R/B 3.7 22:20:58 10° W 22:25:50 89° NNE 22:30:42 10° E
SL-08 RB Rocket 4.4 22:23:10 16° S 22:26:37 48° W 22:31:02 10° NNW
Cosmos 407 Rocket 4.0 22:25:05 23° SSE 22:27:54 42° ESE 22:32:49 10° NE
Cosmos-2242 3.5 22:25:30 10° N 22:29:47 47° ENE 22:31:50 27° SE
IGS 5A 3.4 22:29:32 27° SSE 22:31:46 88° W 22:35:57 10° NNW
USA 234 4.5 22:27:51 15° S 22:32:06 28° SW 22:37:36 10° WNW
Cosmos 1758 Rocket 3.5 22:36:07 25° S 22:38:36 77° E 22:43:00 10° NNE
Cosmos 1953 2.8 22:35:56 10° N 22:39:49 46° ENE 22:41:17 31° SE
SL-24 R/B 4.4 22:36:55 10° N 22:41:47 88° E 22:44:56 24° S
Cosmos 2369 Rocket 2.4 22:37:20 10° NNW 22:42:58 63° WSW 22:46:13 25° S
CARTOSAT-1 3.9 22:40:38 25° S 22:43:03 59° W 22:47:21 10° NNW
Lacrosse 5 rocket 3.0 22:40:56 10° W 22:44:40 37° NNW 22:48:38 10° NE
ALOS 2 4.5 22:43:46 14° E 22:46:03 20° ENE 22:49:16 10° NNE
Cosmos 1805 3.7 22:46:41 10° N 22:50:32 50° ENE 22:51:49 35° SE
SL-16 R/B 4.5 22:46:12 10° W 22:50:52 26° NW 22:55:33 10° N
Lacrosse 4 Rocket 1.8 22:50:40 37° SE 22:51:25 41° ESE 22:55:17 10° NE
CZ-4B R/B 3.8 22:50:08 14° E 22:51:32 16° ENE 22:53:54 10° NNE
H-2A R/B 2.5 22:50:29 22° SSW 22:53:28 51° W 22:58:24 10° NNW
Nadezhda 4 Rocket 4.3 22:57:40 27° SSE 23:00:58 55° E 23:07:09 10° NNE
Cosmos 2263 4.4 22:56:24 10° NNW 23:01:57 61° WSW 23:04:44 29° S
DMSP B5D2-2 4.2 22:58:02 10° NNE 23:03:21 76° WNW 23:07:02 20° SSW
COSMOS 2406 4.2 23:02:11 26° SE 23:03:40 30° ESE 23:08:33 10° NE
Cosmos 1842 Rocket 3.8 23:00:20 10° N 23:04:39 56° ENE 23:06:09 36° SE
Cosmos 1570 Rocket 4.3 23:03:17 10° NNW 23:08:37 64° ENE 23:11:12 30° SE
Cosmos 1346 Rocket 3.9 23:10:07 19° SW 23:12:33 40° WNW 23:16:17 10° N
Cosmos 1190 Rocket 4.4 23:14:25 15° SW 23:18:50 63° WNW 23:24:09 10° NNE
ISS -1.1 23:23:14 16° ENE 23:23:14 16° ENE 23:23:59 10° ENE
Cosmos 1758 3.6 23:19:10 10° NNW 23:23:15 61° W 23:24:30 40° SSW
Cosmos 1340 3.8 23:23:29 28° E 23:23:41 28° E 23:26:59 10° NNE
Cosmos 1842 4.1 23:32:29 28° SW 23:34:07 44° WNW 23:37:54 10° N
Cosmos 1707 3.7 23:33:48 32° ESE 23:34:12 33° E 23:37:46 10° NNE
Cosmos 676 Rocket 4.2 23:31:29 24° SSW 23:34:44 74° WNW 23:40:06 10° NNE
COSMOS 2487 4.0 23:40:05 24° E 23:40:05 24° E 23:42:41 10° NE
Cosmos 2026 Rocket 4.4 23:38:52 31° SE 23:41:19 46° E 23:47:03 10° NNE
Meteor 2-5 Rocket 4.1 23:39:51 35° SSE 23:42:07 55° E 23:47:47 10° NNE
Lacrosse 5 3.7 23:38:31 10° WNW 23:43:04 31° N 23:47:35 10° ENE
Cosmos 1943 4.2 23:40:13 10° SW 23:45:39 45° NW 23:51:08 10° NNE
Cosmos 1023 Rocket 4.4 23:45:10 38° S 23:47:12 77° ESE 23:52:30 10° NNE
Cosmos 1932 4.4 23:45:42 32° SSW 23:48:41 67° ESE 23:54:53 10° NE
Cosmos 1140 Rocket 3.4 23:49:49 38° SSW 23:51:53 83° ESE 23:57:11 10° NNE
Terra 4.1 23:52:00 11° WSW 23:54:30 15° W 23:57:18 10° NW
